Location: Canazei
(46.4667°N, 11.7667°E)
Time: 21:12:28
(UTC+00:00)

N. Korean satellite - Pass Details

Date: 27 September 2021
Orbit: 450 x 495 km, 97.3° (Epoch: 25 October)

Event Time Altitude Azimuth Distance (km) Brightness Sun altitude
Rises 04:08:38 0° 19° (NNE) 2,534 10.6 -10.7°
Reaches altitude 10° 04:10:46 10° 27° (NNE) 1,658 9.8 -10.4°
Maximum altitude 04:14:09 40° 98° (E) 726 8.1 -9.8°
Drops below altitude 10° 04:17:33 10° 169° (S) 1,668 9.3 -9.2°
Sets 04:19:43 0° 177° (S) 2,550 10.2 -8.8°
